This demonstration page uses our WeatherBlox Daily Observations layout. Learn more.

Left ArrowRight Arrow

38.80484, -77.04692

Hourly Observations for September 8, 2020

Temp ( °F °C ) Dew Point ( °F °C ) Humidity (%) Winds ( mph kmh ) Pressure ( in mb ) Visibility ( mi km ) Precip ( " mm )
12:52 am 00:52 Partly Cloudy 70 21.1 61 16.1 73 73 SSE 5 7 30.05 1018 10 16 N/A
1:52 am 01:52 Clear 69 20.6 63 17.2 81 81 S 8 13 30.04 1017 10 16 N/A
2:52 am 02:52 Mostly Clear 68 20 64 17.8 87 87 SSW 5 7 30.04 1017 10 16 N/A
3:52 am 03:52 Mostly Cloudy 69 20.6 65 18.3 87 87 N N/A 30.06 1018 10 16 N/A
4:52 am 04:52 Mostly Cloudy 69 20.6 65 18.3 87 87 N N/A 30.08 1019 10 16 N/A
5:52 am 05:52 Partly Cloudy 67 19.4 64 17.8 91 91 NE 7 11 30.09 1019 10 16 N/A
6:52 am 06:52 Partly Cloudy 66 18.9 63 17.2 90 90 NNE 5 7 30.10 1019 10 16 N/A
7:52 am 07:52 Mostly Sunny 68 20 64 17.8 87 87 N 3 6 30.13 1020 10 16 N/A
8:52 am 08:52 Partly Cloudy 72 22.2 65 18.3 79 79 NE 3 6 30.14 1021 10 16 N/A
9:52 am 09:52 Mostly Sunny 76 24.4 67 19.4 74 74 N N/A 30.14 1021 10 16 N/A
10:52 am 10:52 Mostly Sunny 81 27.2 70 21.1 69 69 N N/A 30.16 1021 10 16 N/A
11:52 am 11:52 Partly Cloudy 82 27.8 68 20 63 63 NNE 5 7 30.16 1021 10 16 N/A
12:52 pm 12:52 Partly Cloudy 82 27.8 68 20 63 63 SE 3 6 30.15 1021 10 16 N/A
1:52 pm 13:52 Partly Cloudy 85 29.4 68 20 57 57 N N/A 30.15 1021 10 16 N/A
2:52 pm 14:52 Partly Cloudy 84 28.9 67 19.4 57 57 VRB 5 7 30.14 1021 10 16 N/A
3:52 pm 15:52 Mostly Cloudy 86 30 65 18.3 49 49 N N/A 30.12 1020 10 16 N/A
4:52 pm 16:52 Mostly Cloudy 85 29.4 67 19.4 55 55 VRB 6 9 30.12 1020 10 16 N/A
5:52 pm 17:52 Mostly Cloudy 84 28.9 65 18.3 53 53 ESE 6 9 30.12 1020 10 16 N/A
6:52 pm 18:52 Mostly Cloudy 82 27.8 67 19.4 60 60 E 7 11 30.12 1020 10 16 N/A
7:52 pm 19:52 Mostly Cloudy 80 26.7 68 20 67 67 ESE 5 7 30.13 1020 10 16 N/A
8:52 pm 20:52 Mostly Cloudy 79 26.1 68 20 69 69 E 5 7 30.15 1021 10 16 N/A
9:52 pm 21:52 Mostly Cloudy 78 25.6 69 20.6 74 74 NE 7 11 30.15 1021 10 16 N/A
10:52 pm 22:52 Mostly Cloudy 77 25 69 20.6 77 77 ENE 6 9 30.16 1021 10 16 N/A
11:52 pm 23:52 Cloudy 76 24.4 69 20.6 79 79 ENE 8 13 30.17 1022 10 16 N/A

Powered by AerisWeather